    Orbital elements:
    2000 HO40                                                Earth MOID = 0.0383 AU
    Epoch 2018 Mar. 23.0 TT = JDT 2458200.5                 MPC
    M  94.55799              (2000.0)            P               Q
    n   1.52947393     Peri.    6.34064     +0.80508812     -0.59096283
    a   0.7460616      Node    30.06830     +0.53964432     +0.69409581
    e   0.5173768      Incl.    5.83668     +0.24620547     +0.41108873
    P   0.64           H   22.1           G   0.15           U   5
    Residuals in seconds of arc
    000425 699  0.6+  0.6-    180406 G96  0.4-  0.2+    180406 J95  0.3+  0.3-
    000425 699  0.9-  0.5-    180406 I52  0.0   0.0     180406 J95  0.1+  0.0
    000425 699  0.1-  0.3-    180406 I52  0.2-  0.5+    180406 587  0.1+  0.6+
    000425 699  0.2+  0.7-    180406 I52  0.1-  0.2+    180406 587  0.1+  0.1-
    000425 557  0.7+  0.8-    180406 I52  0.7-  0.7-    180407 I52  0.0   0.0
    000425 557  0.3-  1.1+    180406 I52  0.5+  0.2+    180407 I52  0.4+  0.5+
    000426 557  0.5-  0.1-    180406 I52  0.4-  0.6+    180407 I52  0.1-  0.4+
    000426 557  0.3+  0.1+    180406 I52  0.6+  0.2-    180407 I52  0.3+  0.2+
    000426 557  0.1-  0.4+    180406 I52  0.0   1.5-    180407 246  0.4-  0.5-
    000426 557  0.6+  0.5+    180406 106  0.9-  0.5-    180407 246  0.1-  0.5+
    000426 046  0.2-  0.7-    180406 106  0.6-  0.1+    180407 246  0.7+  0.2-
    000426 046  0.2-  0.7-    180406 K87  0.8-  0.0     180407 246  0.1-  0.8+
    000426 046  0.9-  1.3+    180406 K87  0.2-  0.2+    180407 246  0.3-  0.1+
    000426 046  0.5-  1.0+    180406 K87  0.3-  0.2+    180407 246  0.4-  0.1+
    000428 858  0.9+  0.4+    180406 104  0.0   0.5-    180407 595  0.1-  0.2-
    000428 858  0.6+  0.6+    180406 104  0.3-  0.4+    180407 595  0.5+  1.1+
    000428 858  0.2-  0.4+    180406 104  0.3-  0.5-    180407 595  0.5-  0.1-
    000429 673 (1.6+  1.7-)   180406 104  1.0-  0.2+    180407 K65  0.2+  0.1-
    000429 673 (1.4-  1.7-)   180406 L01  0.2-  0.3-    180407 K65  0.5+  0.2+
    000429 858  0.0   0.1+    180406 L01  0.1-  0.1+    180407 K65  0.2+  0.0
    000429 858  0.4+  0.7-    180406 L01  0.5-  0.6-    180408 I52  0.6+  0.1+
    000503 858  0.9+  0.1+    180406 L01  0.2-  0.4-    180408 I52  0.1-  0.2-
    000505 858  0.8-  0.9-    180406 L01  0.1+  0.0     180408 I52  0.0   0.1+
    000505 858  0.4-  0.7-    180406 C43  0.4+  0.2-    180408 I52  0.2+  0.3-
    000505 858  0.1-  0.4+    180406 C43  0.4+  0.1-    180408 H01  0.1+  0.1+
    180406 G96  0.1-  0.4-    180406 C43  0.2+  0.1+    180408 H01  0.0   0.0
    180406 G96  0.0   0.1+    180406 C43 (0.2-  1.7-)   180408 H01  0.0   0.1-
    180406 G96  0.1-  0.5+    180406 J95  0.4+  0.2+    180408 H01  0.1+  0.0
    
    Ephemeris:
    2000 HO40                a,e,i = 0.75, 0.52, 6                   q = 0.3601
    Date    TT    R. A. (2000) Decl.     Delta      r     Elong.  Phase     V
    2018 03 09    22 56 18.8 +13 35 16   0.1772  0.8272    18.9   157.1    28.0
    ...
    2018 03 24    00 40 55.5 +47 07 01   0.07430 0.9471    46.4   130.4    22.1
    ...
    2018 04 01    06 45 58.4 +56 19 38   0.07133 0.9981    87.2    88.7    19.5
    ...
    2018 04 07    08 39 48.5 +38 13 16   0.1007  1.0307   104.5    70.0    19.6
    2018 04 08    08 48 17.1 +35 56 24   0.1069  1.0357   106.0    68.3    19.7
    2018 04 09    08 55 28.6 +33 52 37   0.1133  1.0406   107.2    66.8    19.8
    ...
    2018 04 15    09 23 17.9 +24 55 26   0.1545  1.0669   110.4    61.8    20.4
    ...
    2018 04 23    09 43 22.2 +18 08 20   0.2132  1.0949   109.4    60.0    21.1
    ...
    2018 05 08    10 07 26.7 +11 16 12   0.3248  1.1263   102.7    60.9    22.1
    
    A. U. Tomatic                (C) Copyright 2018 MPC           M.P.E.C. 2018-G30
    

    Read MPEC 2018-G29 Read MPEC 2018-G31


    MPEC number:

    Enter an MPEC number in one of the following forms:

    • 1997-B01 (the full form)
    • J97B01 (the packed version of the full form)
    • B01 (the abbreviated form)